Notices

What's New in latest Release from April 7th, 2021:

- Updated Glossary, including Speed of Maximum Gust, and Total Hourly Precipitation

- Updated national and regional climate services offices contacts and prices information

- Addition of station inventory lists for 1981-2010, 1971-2000, and 1961-1990 Normals.

If you haven't already, please take our survey and provide feedback about our website: https://eccc.sondage-survey.ca/f/LanguageSelection.aspx?s=442ca660-fcf1-47c0-95a9-59707d6fd709

Hourly Data Report for May 24, 2020

MIRAMICHI RCS
NEW BRUNSWICK
Current Station Operator: ECCC - MSC

47°00'34.000" N
65°27'54.000" W
33.00 m
8100989
71744
ACQ

Download Data

Hourly Data (May 2020)
Hourly Data Report for May 24, 2020
TIME
LST
Temp Definition
°C
Dew Point Definition
°C
Rel Hum Definition
%
Precip. Amount Definition
mm

Wind Dir Definition
10's deg

Wind Spd Definition
km/h
Visibility Definition
km
Stn Press Definition
kPa
Hmdx Definition


Wind Chill Definition


Weather Definition


00:00 4.3 -3.2 58 LegendMM 25 5   102.21     LegendNANA
01:00 2.5 -2.7 68 LegendMM 24 2   102.18     LegendNANA
02:00 1.2 -3.5 71 LegendMM 20 1   102.15     LegendNANA
03:00 1.0 -2.8 76 LegendMM 25 3   102.20     LegendNANA
04:00 1.9 -2.3 74 LegendMM 28 5   102.24     LegendNANA
05:00 2.4 -1.3 76 LegendMM 24 5   102.27     LegendNANA
06:00 3.6 -0.2 76 LegendMM 21 6   102.28     LegendNANA
07:00 4.7 -0.6 68 LegendMM 23 6   102.30     LegendNANA
08:00 7.6 0.1 59 LegendMM 20 3   102.30     LegendNANA
09:00 11.1 -1.1 43 LegendMM 23 7   102.30     LegendNANA
10:00 14.1 -2.8 31 LegendMM 25 7   102.28     LegendNANA
11:00 16.2 -1.4 30 LegendMM 25 10   102.24     LegendNANA
12:00 18.0 -3.8 22 LegendMM 24 19   102.16     LegendNANA
13:00 18.7 -3.4 22 LegendMM 24 15   102.06     LegendNANA
14:00 20.0 -1.7 23 LegendMM 22 16   102.01     LegendNANA
15:00 20.9 -2.3 21 LegendMM 22 19   101.93     LegendNANA
16:00 21.3 3.8 32 LegendMM 23 18   101.86     LegendNANA
17:00 21.6 4.2 32 LegendMM 21 18   101.80     LegendNANA
18:00 21.9 4.2 31 LegendMM 22 22   101.76     LegendNANA
19:00 20.8 4.1 33 LegendMM 21 23   101.76     LegendNANA
20:00 18.2 1.7 33 LegendMM 20 17   101.77     LegendNANA
21:00 16.6 1.1 35 LegendMM 20 22   101.82     LegendNANA
22:00 15.2 -1.3 32 LegendMM 21 24   101.89     LegendNANA
23:00 14.0 -2.6 32 LegendMM 23 24   101.90     LegendNANA

Notes on Data Quality.

Legend

  • E = Estimated
  • M = Missing
  • NA = Not Available*
  • [empty] = Indicates an unobserved value
Date modified: